| time (UTC) | temp F | wind direction | speed MPH | gust MPH | rain 1hr in | rain 24hr in | rain mn in | humidity % | barometer mb |
| 20260502182006 | 45 | 0.0 | 0.0 | 0.00 | 0.00 | 0.00 | 46 | 1007.6 | |
| 20260502181006 | 45 | 0.0 | 0.0 | 0.00 | 0.00 | 0.00 | 46 | 1007.5 | |
| 20260502164006 | 43 | 0.0 | 0.0 | 0.00 | 0.00 | 0.00 | 52 | 1006.2 | |
| 20260502163006 | 42 | 0.0 | 0.0 | 0.00 | 0.00 | 0.00 | 54 | 1006.0 | |
| 20260502162006 | 40 | 0.0 | 0.0 | 0.00 | 0.00 | 0.00 | 55 | 1005.9 | |
| 20260502161006 | 39 | 0.0 | 0.0 | 0.00 | 0.00 | 0.00 | 55 | 1005.8 | |
| 20260502152005 | 36 | 0.0 | 0.0 | 0.00 | 0.00 | 0.00 | 55 | 1005.2 | |
| 20260502151215 | 36 | 0.0 | 0.0 | 0.00 | 0.00 | 0.00 | 55 | 1005.1 | |
| 20260502123006 | 37 | 0.0 | 0.0 | 0.00 | 0.00 | 0.00 | 51 | 1002.7 | |
| 20260502122216 | 37 | 0.0 | 0.0 | 0.00 | 0.00 | 0.00 | 50 | 1002.5 | |
| 20260502121005 | 38 | 0.0 | 0.0 | 0.00 | 0.00 | 0.00 | 50 | 1002.3 | |
| 20260502120215 | 40 | 0.0 | 0.0 | 0.00 | 0.00 | 0.00 | 50 | 1002.2 | |
| 20260502115005 | 39 | 0.0 | 0.0 | 0.00 | 0.00 | 0.00 | 51 | 1001.9 | |
| 20260502114006 | 39 | 0.0 | 0.0 | 0.00 | 0.00 | 0.00 | 51 | 1001.7 | |
| 20260502113006 | 39 | 0.0 | 0.0 | 0.00 | 0.00 | 0.00 | 53 | 1001.4 | |
| 20260502112006 | 37 | 0.0 | 0.0 | 0.00 | 0.00 | 0.00 | 53 | 1001.0 | |
| 20260502111006 | 34 | 0.0 | 0.0 | 0.00 | 0.00 | 0.00 | 54 | 1000.7 | |
| 20260502110006 | 34 | 0.0 | 0.0 | 0.00 | 0.00 | 0.00 | 54 | 1000.5 | |
| 20260502105006 | 34 | 0.0 | 0.0 | 0.00 | 0.00 | 0.00 | 53 | 1000.2 | |
| 20260502104006 | 34 | 0.0 | 0.0 | 0.00 | 0.00 | 0.00 | 53 | 1000.0 | |
| 20260502103005 | 33 | 0.0 | 0.0 | 0.00 | 0.00 | 0.00 | 53 | 999.8 | |
| 20260502102215 | 33 | 0.0 | 0.0 | 0.00 | 0.00 | 0.00 | 53 | 999.6 | |
| 20260502101006 | 34 | 0.0 | 0.0 | 0.00 | 0.00 | 0.00 | 53 | 999.4 | |
| 20260502091006 | 34 | 0.0 | 0.0 | 0.00 | 0.00 | 0.00 | 52 | 998.4 | |
| 20260502090216 | 34 | 0.0 | 0.0 | 0.00 | 0.00 | 0.00 | 53 | 998.2 | |
| 20260502071006 | 36 | 0.0 | 0.0 | 0.00 | 0.00 | 0.00 | 49 | 996.8 | |
| 20260502070006 | 36 | 0.0 | 0.0 | 0.00 | 0.00 | 0.00 | 48 | 996.7 | |
| 20260502065005 | 36 | 0.0 | 0.0 | 0.00 | 0.00 | 0.00 | 47 | 996.8 | |
| 20260502064007 | 37 | 0.0 | 0.0 | 0.00 | 0.00 | 0.00 | 46 | 996.8 | |
| 20260502063006 | 37 | 0.0 | 0.0 | 0.00 | 0.00 | 0.00 | 46 | 996.7 | |
| 20260502062006 | 37 | 0.0 | 0.0 | 0.00 | 0.00 | 0.00 | 47 | 996.7 | |
| 20260502061215 | 37 | 0.0 | 0.0 | 0.00 | 0.00 | 0.00 | 46 | 996.6 | |
| 20260502060215 | 38 | 0.0 | 0.0 | 0.00 | 0.00 | 0.00 | 45 | 996.5 | |
| 20260502055005 | 38 | 0.0 | 0.0 | 0.00 | 0.00 | 0.00 | 45 | 996.4 | |
| 20260502054005 | 39 | 0.0 | 0.0 | 0.00 | 0.00 | 0.00 | 44 | 996.5 | |
| 20260502053006 | 39 | 0.0 | 0.0 | 0.00 | 0.00 | 0.00 | 43 | 996.5 | |
| 20260502052005 | 39 | 0.0 | 0.0 | 0.00 | 0.00 | 0.00 | 42 | 996.5 | |
| 20260502051006 | 39 | 0.0 | 0.0 | 0.00 | 0.00 | 0.00 | 42 | 996.2 | |
| 20260502050006 | 40 | 0.0 | 0.0 | 0.00 | 0.00 | 0.00 | 41 | 996.4 | |
| 20260502045006 | 41 | 0.0 | 0.0 | 0.00 | 0.00 | 0.00 | 40 | 996.4 | |
| 20260502044007 | 40 | 0.0 | 0.0 | 0.00 | 0.00 | 0.00 | 39 | 996.4 | |
| 20260502043006 | 42 | 0.0 | 0.0 | 0.00 | 0.00 | 0.00 | 39 | 996.6 | |
| 20260502042217 | 43 | 0.0 | 0.0 | 0.00 | 0.00 | 0.00 | 37 | 996.6 | |
| 20260502041006 | 45 | 0.0 | 0.0 | 0.00 | 0.00 | 0.00 | 37 | 996.8 | |
| 20260502040005 | 46 | 0.0 | 0.0 | 0.00 | 0.00 | 0.00 | 35 | 996.7 | |
| 20260502035006 | 47 | 0.0 | 0.0 | 0.00 | 0.00 | 0.00 | 35 | 996.9 | |
| 20260502034217 | 47 | 0.0 | 0.0 | 0.00 | 0.00 | 0.00 | 34 | 996.9 | |
| 20260502033006 | 48 | 0.0 | 0.0 | 0.00 | 0.00 | 0.00 | 33 | 997.1 | |
| 20260502032006 | 48 | 0.0 | 0.0 | 0.00 | 0.00 | 0.00 | 32 | 997.0 | |
| 20260502031006 | 49 | 0.0 | 0.0 | 0.00 | 0.00 | 0.00 | 32 | 997.3 | |
| 20260502030006 | 50 | 0.0 | 0.0 | 0.00 | 0.00 | 0.00 | 31 | 997.6 | |
| 20260502025006 | 50 | 0.0 | 0.0 | 0.00 | 0.00 | 0.00 | 31 | 997.5 | |
| 20260502024216 | 51 | 0.0 | 0.0 | 0.00 | 0.00 | 0.00 | 31 | 997.4 | |
| 20260502023005 | 50 | 0.0 | 0.0 | 0.00 | 0.00 | 0.00 | 32 | 997.4 | |
| 20260502022005 | 50 | 0.0 | 0.0 | 0.00 | 0.00 | 0.00 | 31 | 997.4 | |
| 20260502021007 | 50 | 0.0 | 0.0 | 0.00 | 0.00 | 0.00 | 30 | 997.5 | |
| 20260502020007 | 51 | 0.0 | 0.0 | 0.00 | 0.00 | 0.00 | 30 | 997.5 | |
| 20260502015216 | 50 | 0.0 | 0.0 | 0.00 | 0.00 | 0.00 | 30 | 997.5 | |
| 20260502014216 | 51 | 0.0 | 0.0 | 0.00 | 0.00 | 0.00 | 30 | 997.7 | |
| 20260502013006 | 50 | 0.0 | 0.0 | 0.00 | 0.00 | 0.00 | 30 | 997.7 | |
| 20260502012216 | 50 | 0.0 | 0.0 | 0.00 | 0.00 | 0.00 | 30 | 997.7 | |
| 20260502011006 | 51 | 0.0 | 0.0 | 0.00 | 0.00 | 0.00 | 29 | 997.8 | |
| 20260502010218 | 51 | 0.0 | 0.0 | 0.00 | 0.00 | 0.00 | 29 | 997.9 | |
| 20260502005006 | 51 | 0.0 | 0.0 | 0.00 | 0.00 | 0.00 | 29 | 997.5 | |
| 20260502004007 | 51 | 0.0 | 0.0 | 0.00 | 0.00 | 0.00 | 30 | 997.6 | |
| 20260502003006 | 51 | 0.0 | 0.0 | 0.00 | 0.00 | 0.00 | 30 | 997.7 | |
| 20260502002006 | 51 | 0.0 | 0.0 | 0.00 | 0.00 | 0.00 | 30 | 997.9 | |
| 20260502001006 | 51 | 0.0 | 0.0 | 0.00 | 0.00 | 0.00 | 30 | 998.5 | |
| 20260502000006 | 51 | 0.0 | 0.0 | 0.00 | 0.00 | 0.00 | 29 | 998.7 | |
| 20260501235006 | 51 | 0.0 | 0.0 | 0.00 | 0.00 | 0.00 | 30 | 999.0 | |
| 20260501234006 | 51 | 0.0 | 0.0 | 0.00 | 0.00 | 0.00 | 30 | 999.3 | |
| 20260501233007 | 51 | 0.0 | 0.0 | 0.00 | 0.00 | 0.00 | 30 | 999.4 | |
| 20260501232006 | 51 | 0.0 | 0.0 | 0.00 | 0.00 | 0.00 | 29 | 999.6 | |
| 20260501231006 | 50 | 0.0 | 0.0 | 0.00 | 0.00 | 0.00 | 29 | 999.4 | |
| 20260501230006 | 50 | 0.0 | 0.0 | 0.00 | 0.00 | 0.00 | 30 | 999.8 | |
| 20260501225006 | 50 | 0.0 | 0.0 | 0.00 | 0.00 | 0.00 | 30 | 1000.0 | |
| 20260501224005 | 51 | 0.0 | 0.0 | 0.00 | 0.00 | 0.00 | 30 | 1000.5 | |
| 20260501223006 | 51 | 0.0 | 0.0 | 0.00 | 0.00 | 0.00 | 30 | 1000.5 | |
| 20260501222005 | 50 | 0.0 | 0.0 | 0.00 | 0.00 | 0.00 | 30 | 1000.7 | |
| 20260501221006 | 51 | 0.0 | 0.0 | 0.00 | 0.00 | 0.00 | 31 | 1000.6 | |
| 20260501220006 | 51 | 0.0 | 0.0 | 0.00 | 0.00 | 0.00 | 31 | 1000.9 | |
| 20260501215006 | 51 | 0.0 | 0.0 | 0.00 | 0.00 | 0.00 | 32 | 1000.9 | |
| 20260501214007 | 49 | 0.0 | 0.0 | 0.00 | 0.00 | 0.00 | 32 | 1001.1 | |
| 20260501213216 | 50 | 0.0 | 0.0 | 0.00 | 0.00 | 0.00 | 32 | 1001.2 | |
| 20260501212005 | 49 | 0.0 | 0.0 | 0.00 | 0.00 | 0.00 | 33 | 1001.2 | |
| 20260501211005 | 48 | 0.0 | 0.0 | 0.00 | 0.00 | 0.00 | 32 | 1001.3 | |
| 20260501210005 | 49 | 0.0 | 0.0 | 0.00 | 0.00 | 0.00 | 32 | 1001.3 | |
| 20260501205006 | 49 | 0.0 | 0.0 | 0.00 | 0.00 | 0.00 | 32 | 1001.3 | |
| 20260501204006 | 49 | 0.0 | 0.0 | 0.00 | 0.00 | 0.00 | 32 | 1001.4 | |
| 20260501203006 | 50 | 0.0 | 0.0 | 0.00 | 0.00 | 0.00 | 32 | 1001.2 | |
| 20260501202005 | 49 | 0.0 | 0.0 | 0.00 | 0.00 | 0.00 | 34 | 1001.2 | |
| 20260501201006 | 47 | 0.0 | 0.0 | 0.00 | 0.00 | 0.00 | 35 | 1001.6 | |
| 20260501200005 | 46 | 0.0 | 0.0 | 0.00 | 0.00 | 0.00 | 36 | 1001.7 | |
| 20260501195005 | 47 | 0.0 | 0.0 | 0.00 | 0.00 | 0.00 | 38 | 1002.0 | |
| 20260501194005 | 45 | 0.0 | 0.0 | 0.00 | 0.00 | 0.00 | 39 | 1002.2 | |
| 20260501193215 | 45 | 0.0 | 0.0 | 0.00 | 0.00 | 0.00 | 42 | 1002.7 | |
| 20260501192006 | 44 | 0.0 | 0.0 | 0.00 | 0.00 | 0.00 | 43 | 1002.8 | |
| 20260501191006 | 42 | 0.0 | 0.0 | 0.00 | 0.00 | 0.00 | 45 | 1003.2 | |
| 20260501190005 | 40 | 0.0 | 0.0 | 0.00 | 0.00 | 0.00 | 47 | 1003.3 | |
| 20260501185006 | 39 | 0.0 | 0.0 | 0.00 | 0.00 | 0.00 | 48 | 1003.5 | |
| 20260501184006 | 39 | 0.0 | 0.0 | 0.00 | 0.00 | 0.00 | 48 | 1003.6 | |
| 20260501183006 | 38 | 0.0 | 0.0 | 0.00 | 0.00 | 0.00 | 48 | 1003.6 |